Probability
0 0 0 0 0 0 0 0 0 0 0 0 0 0 0 0 0 3 3 3 0 3 3 3 3 3 3 6 6 6 3 3 0 0 3 3 3 3 0 0 0 0 0 0
0 0 0 0 0 0 0 0 0 0 0 0 0 0 0 0 0 3 3 3 3 0 3 3 3 3 3 3 6 6 3 0 0 0 0 0 0 0 0 0 0 0 0 0
0 0 0 0 0 0 0 0 0 0 0 0 0 0 0 0 0 0 3 3 3 0 0 0 0 3 3 3 3 3 0 0 3 0 0 0 0 0 0 0 0 0 0 0
0 0 0 0 0 0 0 0 0 0 0 0 0 0 0 0 0 0 3 3 3 0 0 0 0 0 0 3 3 3 0 0 0 3 0 0 0 0 0 0 0 0 0 0
0 0 0 0 0 0 0 0 0 0 0 0 0 0 0 0 0 0 0 3 3 0 0 0 0 0 0 0 0 0 0 0 3 0 0 0 0 0 0 0 0 0 0 0
0 0 0 0 0 0 0 0 0 0 0 0 0 0 0 0 0 0 0 0 0 0 0 0 0 0 0 0 0 0 0 0 0 0 0 0 0 0 0 0 0 0 0 0
0 0 0 0 0 0 0 0 0 0 0 0 0 0 0 0 0 0 0 0 0 0 0 0 0 0 0 0 0 0 0 0 0 0 0 0 0 0 0 0 0 0 0 0
0 0 0 0 0 0 0 0 0 0 0 0 0 0 0 0 0 0 0 0 0 0 0 0 0 0 0 0 0 0 0 0 0 0 0 0 0 0 0 0 0 0 0 0
0 0 0 0 0 0 0 0 0 0 0 0 0 0 0 0 0 0 0 0 0 0 0 0 0 0 0 0 0 0 0 0 0 0 0 0 0 0 0 0 0 0 0 0
0 0 0 0 0 0 0 0 0 0 0 0 0 0 0 0 0 0 0 0 0 0 0 0 0 0 0 0 0 0 0 0 0 0 0 0 0 0 0 0 0 0 0 0
0 0 0 0 0 0 0 0 0 0 0 0 0 0 0 0 0 0 0 0 0 0 0 0 0 0 0 0 0 0 0 0 0 0 0 0 0 0 0 0 0 0 0 0
0 0 0 0 0 0 0 0 0 0 0 0 0 0 0 0 0 0 0 0 0 0 0 0 0 0 0 0 0 0 0 0 0 0 0 0 0 0 0 0 0 0 0 0
0 0 0 0 0 0 0 0 0 0 0 0 0 0 0 0 0 0 0 0 0 0 0 0 0 0 0 0 0 0 0 0 0 0 0 0 0 0 0 0 0 0 0 0
0 0 0 0 0 0 0 0 0 0 0 0 0 0 0 0 0 0 0 0 0 0 0 0 0 0 0 0 0 0 0 0 0 0 0 0 0 0 0 0 0 0 0 0
0 0 0 0 0 0 0 0 0 0 0 0 0 0 0 0 0 0 0 0 0 0 0 0 0 0 0 0 0 0 0 0 0 0 0 0 0 0 0 0 0 0 0 0
0 0 0 0 0 0 0 0 0 0 0 0 0 0 0 0 0 0 0 0 0 0 0 0 0 0 0 0 0 0 0 0 0 0 0 0 0 0 0 0 0 0 0 0
0 0 0 0 0 0 0 0 0 0 0 0 0 0 0 0 0 0 0 0 0 0 0 0 0 0 0 0 0 0 0 0 0 0 0 0 0 0 0 0 0 0 0 0
0 0 0 0 0 0 0 0 0 0 0 0 0 0 0 0 0 0 0 0 0 0 0 0 0 0 0 0 0 0 0 0 0 0 0 0 0 0 0 0 0 0 0 0
0 0 0 0 0 0 0 0 0 0 0 0 0 0 0 0 0 0 0 0 0 0 0 0 0 0 0 0 0 0 0 0 0 0 0 0 0 0 0 0 0 0 0 0
0 0 0 0 0 0 0 0 0 0 0 0 0 0 0 0 0 0 0 0 0 0 0 0 0 0 0 0 0 0 0 0 0 0 0 0 0 0 0 0 0 0 0 0
0 0 0 0 0 0 0 0 0 0 0 0 0 0 0 0 0 0 0 0 0 0 0 0 0 0 0 0 0 0 0 0 0 0 0 0 0 0 0 0 0 0 0 0
0 0 0 0 0 0 0 0 0 0 0 0 0 0 0 0 0 0 0 0 0 0 0 0 0 0 0 0 0 0 0 0 0 0 0 0 0 0 0 0 0 0 0 0
0 0 0 0 0 0 0 0 0 0 0 0 0 0 0 0 0 0 0 0 0 0 0 0 0 0 0 0 0 0 0 0 0 0 0 0 0 0 0 0 0 0 0 0
0 0 0 0 0 0 0 0 0 0 0 0 0 0 0 0 0 0 0 0 0 0 0 0 0 0 0 0 0 0 0 0 0 0 0 0 0 0 0 0 0 0 0 0
0 0 0 0 0 0 0 0 0 0 0 0 0 0 0 0 0 0 0 0 0 0 0 0 0 0 0 0 0 0 0 0 0 0 0 0 0 0 0 0 0 0 0 0
0 0 0 0 0 0 0 0 0 0 0 0 0 0 0 0 0 0 0 0 0 0 0 0 0 0 0 0 0 0 0 0 0 0 0 0 0 0 0 0 0 0 0 0
0 0 0 0 0 0 0 0 0 0 0 0 0 0 0 0 0 0 0 0 0 0 0 0 0 0 0 0 0 0 0 0 0 0 0 0 0 0 0 0 0 0 0 0
Height
5774 5774 5774 5774 5774 5774 5774 5775 5775 5776 5776 5776 5774 5774 5774 5774 5773 5773 5773 5772 5771 5770 5770 5769 5768 5767 5767 5766 5765 5765 5764 5764 5763 5763 5762 5761 5760 5759 5757 5756 5754 5753 5751 5750
5769 5769 5768 5768 5768 5768 5768 5769 5769 5769 5769 5769 5768 5768 5768 5767 5766 5766 5766 5765 5764 5763 5763 5762 5761 5760 5759 5759 5758 5758 5757 5757 5756 5755 5755 5754 5752 5751 5750 5748 5746 5744 5743 5742
5762 5762 5761 5761 5762 5761 5761 5762 5762 5762 5763 5762 5762 5761 5761 5761 5760 5759 5759 5758 5757 5756 5756 5755 5754 5753 5752 5752 5751 5751 5750 5749 5749 5748 5747 5746 5745 5744 5742 5740 5738 5736 5735 5734
5755 5755 5753 5758 5756 5755 5754 5754 5755 5754 5754 5755 5755 5754 5754 5753 5753 5753 5752 5751 5750 5749 5748 5748 5747 5746 5745 5744 5744 5743 5743 5742 5741 5741 5740 5739 5738 5736 5734 5733 5731 5729 5727 5726
5748 5746 5747 5749 5749 5748 5747 5747 5747 5747 5747 5747 5747 5747 5746 5746 5746 5746 5745 5744 5743 5742 5741 5741 5740 5739 5738 5737 5736 5736 5735 5734 5734 5733 5732 5731 5730 5728 5727 5725 5723 5721 5719 5718
5740 5739 5739 5742 5742 5740 5740 5739 5739 5739 5739 5739 5739 5739 5739 5739 5738 5738 5737 5736 5736 5735 5735 5734 5733 5732 5731 5730 5729 5729 5728 5727 5726 5725 5724 5723 5722 5720 5719 5717 5715 5713 5711 5709
5733 5731 5732 5733 5733 5732 5732 5732 5731 5730 5730 5730 5730 5730 5731 5730 5730 5730 5729 5729 5728 5727 5727 5727 5726 5725 5724 5723 5722 5721 5720 5719 5719 5718 5717 5715 5714 5712 5710 5709 5706 5704 5702 5701
5725 5724 5726 5725 5724 5724 5723 5722 5722 5721 5721 5721 5721 5721 5721 5721 5721 5721 5721 5720 5720 5720 5719 5719 5718 5717 5716 5716 5715 5713 5712 5712 5711 5710 5708 5707 5706 5704 5702 5700 5698 5695 5693 5692
5718 5719 5717 5716 5715 5714 5714 5713 5713 5713 5712 5713 5712 5712 5712 5713 5713 5712 5712 5712 5711 5711 5711 5710 5709 5709 5708 5707 5706 5705 5705 5703 5702 5701 5700 5699 5697 5695 5693 5691 5689 5687 5684 5682
5710 5709 5708 5707 5706 5705 5704 5704 5703 5703 5703 5704 5704 5703 5704 5704 5703 5703 5703 5703 5703 5702 5702 5701 5701 5700 5699 5698 5698 5697 5696 5695 5694 5693 5691 5690 5688 5686 5684 5682 5680 5677 5675 5673
5701 5701 5700 5699 5698 5696 5694 5694 5694 5694 5694 5694 5694 5694 5694 5694 5694 5694 5694 5694 5694 5693 5693 5692 5692 5691 5690 5689 5688 5688 5687 5686 5685 5683 5682 5681 5679 5677 5675 5673 5670 5668 5666 5663
5692 5692 5690 5689 5688 5687 5686 5685 5685 5684 5684 5684 5684 5684 5684 5684 5684 5684 5684 5684 5684 5684 5683 5683 5682 5682 5681 5680 5679 5678 5677 5676 5675 5674 5672 5671 5669 5667 5665 5663 5660 5658 5656 5654
5683 5682 5680 5679 5678 5677 5676 5675 5675 5674 5674 5674 5674 5674 5674 5674 5674 5674 5674 5674 5674 5674 5673 5673 5672 5672 5671 5670 5669 5668 5667 5666 5665 5664 5662 5661 5659 5657 5655 5653 5650 5648 5646 5644
5673 5672 5670 5669 5668 5667 5666 5665 5664 5664 5664 5664 5664 5664 5664 5664 5664 5664 5664 5664 5664 5663 5663 5663 5662 5661 5661 5660 5659 5658 5657 5656 5655 5653 5652 5650 5649 5647 5645 5643 5641 5638 5636 5634
5664 5662 5661 5659 5658 5657 5655 5654 5654 5653 5653 5653 5654 5654 5654 5654 5654 5654 5654 5653 5653 5653 5652 5652 5651 5651 5650 5649 5648 5647 5646 5645 5644 5643 5641 5640 5638 5637 5635 5633 5631 5629 5626 5624
5654 5652 5651 5649 5648 5647 5646 5645 5644 5643 5643 5643 5643 5643 5643 5643 5643 5643 5643 5643 5642 5642 5641 5641 5640 5640 5639 5638 5637 5636 5636 5634 5633 5632 5631 5629 5628 5626 5624 5622 5620 5618 5616 5614
5645 5643 5641 5640 5638 5637 5636 5635 5634 5633 5633 5633 5633 5632 5632 5632 5632 5632 5632 5632 5631 5631 5631 5630 5629 5629 5628 5627 5626 5625 5624 5623 5622 5621 5620 5619 5617 5615 5614 5612 5610 5608 5606 5603
5635 5633 5632 5630 5629 5627 5626 5625 5624 5624 5623 5623 5622 5622 5621 5621 5621 5621 5621 5621 5620 5620 5619 5619 5618 5617 5616 5616 5615 5614 5613 5612 5611 5610 5609 5608 5607 5605 5604 5602 5600 5598 5595 5593
5625 5623 5622 5620 5619 5618 5617 5616 5615 5614 5614 5613 5612 5612 5611 5610 5610 5610 5610 5609 5609 5609 5608 5607 5606 5605 5605 5604 5603 5602 5602 5601 5600 5599 5598 5597 5596 5595 5593 5592 5590 5588 5585 5583
5615 5614 5612 5611 5609 5608 5607 5606 5605 5604 5603 5603 5602 5601 5601 5600 5599 5599 5598 5598 5597 5597 5596 5596 5595 5594 5593 5592 5591 5591 5590 5589 5589 5588 5587 5587 5586 5584 5583 5582 5580 5578 5576 5574
5606 5604 5602 5600 5599 5597 5596 5595 5594 5593 5593 5592 5591 5591 5590 5589 5588 5588 5587 5587 5586 5585 5585 5584 5583 5583 5582 5581 5581 5580 5580 5579 5578 5577 5577 5576 5575 5574 5573 5572 5570 5569 5566 5564
5597 5595 5593 5591 5589 5587 5586 5584 5583 5582 5582 5581 5580 5580 5579 5578 5578 5577 5576 5576 5575 5575 5574 5573 5572 5572 5571 5571 5570 5569 5569 5568 5568 5567 5567 5566 5566 5565 5564 5563 5561 5560 5557 5555
5587 5585 5583 5581 5579 5577 5576 5574 5573 5572 5571 5570 5570 5569 5568 5567 5567 5566 5566 5565 5564 5564 5563 5563 5562 5561 5560 5560 5560 5559 5559 5558 5558 5557 5557 5557 5556 5556 5555 5554 5552 5551 5549 5547
5578 5576 5574 5571 5569 5567 5566 5564 5562 5561 5560 5559 5559 5558 5557 5557 5556 5556 5555 5555 5555 5554 5553 5553 5552 5551 5551 5551 5550 5550 5549 5549 5549 5548 5548 5548 5548 5548 5547 5546 5544 5542 5541 5539
5569 5567 5564 5562 5560 5558 5556 5554 5553 5551 5550 5549 5549 5548 5547 5547 5547 5547 5546 5546 5546 5545 5545 5544 5544 5543 5542 5542 5542 5541 5540 5540 5540 5540 5540 5540 5540 5539 5539 5538 5536 5535 5533 5531
5560 5558 5556 5553 5551 5549 5547 5545 5543 5542 5541 5540 5539 5539 5539 5539 5538 5538 5538 5538 5538 5537 5537 5537 5536 5535 5535 5534 5533 5533 5532 5532 5532 5532 5532 5532 5531 5531 5531 5530 5529 5527 5526 5524
5551 5549 5547 5545 5543 5541 5538 5536 5535 5533 5532 5532 5531 5531 5531 5531 5531 5531 5531 5530 5530 5530 5530 5529 5529 5528 5527 5527 5526 5526 5525 5525 5525 5524 5524 5524 5524 5524 5523 5522 5521 5520 5518 5516
Wind_Speed
20 20 20 20 21 22 22 22 22 21 21 21 23 24 23 24 24 24 24 24 24 25 25 25 25 26 26 25 25 25 25 25 25 25 25 25 26 26 27 28 29 29 29 28
22 22 22 22 21 23 23 22 23 23 22 22 23 25 25 25 24 24 24 24 25 25 25 25 26 26 26 25 25 25 25 25 25 26 26 26 27 27 28 29 30 29 29 29
24 24 24 24 22 23 24 24 24 24 24 24 24 26 26 25 25 25 25 25 26 26 25 25 25 25 25 26 26 26 26 26 26 26 26 27 28 28 29 30 30 30 29 29
26 26 27 24 22 24 25 25 26 26 25 24 25 26 26 26 26 25 25 26 26 26 25 25 25 25 25 25 25 26 26 27 27 27 27 28 29 29 30 30 30 30 29 29
27 28 28 26 23 24 26 27 26 27 27 26 25 26 27 27 27 26 26 26 26 25 25 24 24 24 24 25 25 25 26 26 27 27 28 28 29 30 31 30 30 30 31 31
28 30 30 27 24 26 27 27 27 28 28 28 28 28 28 28 28 27 27 27 27 26 26 25 25 25 25 25 25 26 26 27 27 28 28 28 29 29 30 31 31 31 32 32
28 30 31 29 27 27 28 28 27 28 28 30 30 30 30 29 28 28 28 28 28 27 27 27 27 26 26 26 26 26 27 27 28 28 28 29 29 30 31 32 32 32 33 32
27 28 29 29 29 29 30 29 30 29 30 30 30 31 31 31 30 29 29 29 28 28 28 28 28 28 28 27 27 28 28 28 29 29 29 29 30 31 32 32 33 33 34 34
28 28 28 28 30 31 31 31 32 32 32 31 31 31 31 31 30 30 30 30 30 29 29 29 28 29 29 29 29 29 29 29 30 30 30 30 31 32 32 33 34 34 34 34
30 30 30 29 29 30 32 32 33 33 34 33 32 32 31 31 30 30 30 30 30 30 30 30 30 30 30 31 31 30 31 31 31 32 32 32 33 33 34 34 35 35 35 35
30 30 32 32 31 31 32 33 33 33 34 33 32 32 32 32 32 31 31 31 31 31 31 31 31 32 32 32 32 32 32 33 33 33 33 34 34 34 35 35 35 35 35 35
31 31 32 33 34 34 34 33 34 34 34 34 34 34 33 33 33 32 32 32 32 33 33 33 33 33 33 33 34 34 34 34 34 35 35 35 35 35 35 35 35 35 36 36
32 32 33 33 34 34 35 35 35 35 35 35 35 35 35 35 34 34 34 34 35 34 34 35 35 34 34 35 35 35 35 35 35 35 36 35 35 35 35 35 35 35 36 36
33 33 33 33 33 34 35 35 35 36 36 36 35 34 34 35 35 35 35 36 36 36 36 36 36 36 36 36 35 35 35 35 36 36 36 36 35 35 35 35 35 35 36 36
32 32 33 33 33 33 33 34 35 34 34 35 35 34 34 35 35 35 35 35 36 36 36 36 37 37 36 36 36 36 36 36 36 36 36 36 36 36 36 36 36 36 36 35
31 32 32 32 33 33 34 34 34 34 34 34 35 35 35 35 35 35 35 36 36 36 36 36 36 36 36 37 37 37 37 37 37 36 36 36 36 36 36 36 37 36 35 35
31 32 32 33 33 33 33 33 33 33 33 33 34 35 36 36 36 35 36 36 36 36 36 36 36 36 36 36 37 37 37 37 36 36 35 35 35 35 35 36 35 35 35 34
33 33 34 34 33 34 33 33 32 33 33 33 34 34 35 36 36 36 36 36 36 36 36 36 36 36 37 37 37 37 37 36 36 35 35 34 34 34 35 35 34 34 34 33
33 33 33 34 34 34 34 33 33 33 34 34 35 35 36 36 36 36 36 36 36 36 36 37 37 37 37 37 36 36 35 35 35 34 34 34 34 35 35 34 34 34 33 33
33 33 33 34 34 34 34 34 34 34 34 34 34 35 35 36 37 37 36 37 37 37 37 37 37 36 35 35 35 34 35 35 34 33 33 33 34 34 33 33 32 32 32 32
32 32 33 33 34 34 34 34 34 35 35 35 34 34 34 35 35 36 36 36 36 36 35 36 36 35 35 34 34 33 33 32 33 33 32 32 32 31 31 31 31 31 30 30
32 33 33 33 34 34 33 34 34 35 34 34 34 34 34 34 35 35 35 35 35 34 34 34 34 34 34 34 34 33 32 31 31 31 30 30 30 30 30 29 29 29 29 29
31 32 33 34 34 33 33 33 33 33 33 33 33 33 33 33 33 33 32 32 32 32 32 32 32 32 32 31 31 30 30 30 29 28 28 27 27 27 27 27 27 27 27 27
31 32 33 33 32 32 32 32 32 32 32 32 32 32 31 31 31 30 30 29 29 29 29 29 28 28 28 28 27 27 27 27 27 26 25 25 24 25 25 25 25 25 26 27
31 31 31 31 30 31 30 30 30 30 30 30 29 29 29 28 27 27 27 26 26 26 26 25 25 25 25 25 25 26 25 25 24 24 24 24 24 24 24 24 24 24 24 25
30 30 30 29 29 29 29 28 28 27 27 27 27 26 25 25 25 25 25 24 24 23 23 23 23 23 23 23 23 23 22 22 22 22 22 23 23 24 23 23 23 24 24 24
29 29 28 28 27 27 26 25 24 24 23 23 23 22 22 22 22 23 23 22 22 22 22 22 22 22 22 21 21 20 20 20 20 20 21 21 22 22 22 23 23 24 24 24
Wind_Direction
271 273 274 273 270 266 266 266 266 268 269 266 270 272 274 275 276 278 277 278 278 278 278 278 277 277 277 278 279 279 279 279 280 280 281 283 286 288 288 287 287 286 286 287
271 273 273 272 270 268 266 266 267 267 270 268 268 272 274 276 277 277 278 278 278 278 279 280 279 277 276 277 278 278 278 278 280 281 282 284 285 287 288 289 288 286 285 286
272 274 274 273 272 271 271 268 270 269 268 269 270 270 271 274 276 276 277 278 279 279 280 280 279 278 278 277 277 278 278 278 279 280 282 284 285 287 288 289 289 288 286 287
273 274 274 279 276 272 272 272 271 270 270 271 269 271 272 273 275 277 277 277 278 278 279 279 279 279 279 279 278 278 278 279 280 281 282 283 284 286 288 290 290 289 286 285
272 274 276 278 278 276 274 273 271 271 271 271 271 271 272 273 275 277 277 277 278 278 278 279 279 280 280 280 280 279 279 280 281 282 283 284 285 286 288 289 289 289 289 286
273 274 275 279 280 278 277 275 273 271 270 270 269 270 271 274 275 276 276 276 276 276 277 277 279 280 280 281 280 280 280 281 282 282 284 285 286 287 288 288 289 289 289 287
274 275 276 279 279 278 277 275 274 272 271 268 269 270 270 272 274 275 275 275 275 275 275 276 278 279 280 281 281 280 280 281 282 283 284 284 286 287 289 290 289 289 289 288
276 277 279 278 277 276 275 273 272 272 271 271 271 271 270 272 273 274 274 274 274 274 274 275 276 277 278 279 280 280 280 281 282 283 283 284 285 288 290 290 291 291 290 289
275 276 279 278 277 276 275 273 272 271 270 271 272 271 271 272 273 274 274 274 273 273 273 274 275 276 277 278 279 280 281 282 281 282 283 284 286 288 290 290 290 291 290 290
274 274 275 274 275 275 274 272 272 272 271 271 272 272 271 272 272 272 272 273 273 272 272 273 274 275 277 278 279 280 281 282 282 282 283 285 287 289 290 290 291 291 290 290
277 276 274 274 275 275 273 272 272 273 273 272 270 270 270 271 271 271 271 272 271 270 271 272 273 275 276 278 279 279 280 282 283 283 284 285 287 289 290 291 291 290 290 290
279 278 277 276 275 275 274 273 273 273 272 272 271 270 270 270 270 270 270 271 272 271 271 272 274 275 276 277 278 279 280 281 282 283 285 286 286 288 290 291 291 291 291 291
281 280 279 278 276 275 274 273 273 272 271 270 272 271 269 270 270 270 271 272 273 273 273 273 275 275 276 277 279 279 280 281 282 283 284 285 286 287 288 289 291 291 291 291
282 282 281 280 278 277 276 275 274 272 270 269 270 271 270 269 269 270 272 273 274 274 274 274 275 276 277 278 279 278 279 280 282 283 284 284 285 286 286 288 289 291 291 290
283 282 282 281 279 278 278 276 275 274 272 270 269 271 271 270 269 270 272 274 274 274 275 275 276 276 277 277 278 278 279 280 282 283 284 284 285 286 286 288 289 290 290 289
282 282 282 282 282 280 279 278 277 275 273 272 270 270 271 271 270 270 272 273 273 274 275 275 276 276 277 278 277 277 278 280 281 282 282 283 285 286 287 288 289 289 289 288
282 282 283 283 283 282 281 279 277 276 274 273 273 273 272 271 272 271 271 271 273 275 275 275 277 278 279 279 278 278 279 279 279 280 281 283 284 286 287 288 289 289 290 290
283 282 282 283 283 281 280 280 278 277 275 274 275 275 275 274 273 272 272 272 273 274 275 276 277 278 279 278 279 278 278 279 279 280 282 282 283 285 286 287 288 289 291 290
285 284 282 282 282 282 281 280 279 278 277 276 276 277 277 276 275 274 274 274 274 274 275 276 277 278 278 279 278 279 279 279 280 280 281 282 283 284 286 287 288 289 290 290
287 286 285 285 284 284 282 281 280 280 279 278 277 277 277 276 275 274 274 275 276 276 276 276 277 278 279 280 280 279 279 279 279 278 278 280 282 284 285 287 288 289 290 290
288 288 288 287 286 284 282 282 281 281 280 279 278 277 277 276 275 274 273 274 274 276 276 277 276 275 276 277 278 279 279 277 277 278 278 279 280 282 284 286 288 289 290 290
288 289 289 289 288 285 284 283 282 281 280 279 278 277 276 276 276 275 274 274 275 276 276 276 276 275 275 276 276 276 277 278 278 277 277 278 280 281 283 286 287 289 291 290
290 290 290 290 288 286 285 283 282 281 280 279 279 277 276 276 277 277 276 275 276 276 277 277 276 277 276 276 277 277 277 277 277 276 276 277 280 281 283 286 287 289 292 292
292 292 291 290 289 287 285 285 285 284 282 279 278 278 278 277 277 277 277 276 276 277 278 278 278 278 276 275 276 277 277 278 277 276 276 277 279 280 283 286 288 291 292 293
292 293 293 292 290 288 287 286 285 284 282 279 279 278 278 277 276 276 276 277 277 277 278 279 279 278 277 276 277 278 278 278 277 276 276 277 278 280 283 287 290 291 293 293
292 291 291 292 291 290 290 289 287 285 283 280 279 278 276 275 274 274 274 275 274 275 277 279 280 281 280 279 279 280 279 279 277 276 275 275 277 279 282 286 289 291 293 295
291 291 290 291 292 291 290 290 288 286 284 282 279 277 276 276 275 273 273 274 274 275 277 280 281 281 280 279 280 280 280 279 278 278 277 278 280 281 283 286 290 292 293 295